Time,TemperatureF,DewpointF,PressureIn,WindDirection,WindDirectionDegrees,WindSpeedMPH,WindSpeedGustMPH,Humidity,HourlyPrecipIn,Conditions,Clouds,dailyrainin,SoftwareType,DateUTC
2013-03-23 00:00:00,65.0,65.0,29.75,ESE,112,3.0,6.0,100,0.01,,---,0.47,VWS V14.01,2013-03-23 04:00:00,
2013-03-23 00:03:00,65.0,65.0,29.75,ESE,112,1.0,6.0,100,0.01,,---,0.00,VWS V14.01,2013-03-23 04:03:00,
2013-03-23 00:05:00,65.0,65.0,29.75,ESE,112,1.0,3.0,100,0.01,,---,0.00,VWS V14.01,2013-03-23 04:05:00,
2013-03-23 00:08:00,65.0,65.0,29.75,ESE,112,2.0,5.0,100,0.01,,---,0.00,VWS V14.01,2013-03-23 04:08:00,
2013-03-23 00:14:00,65.0,65.0,29.75,ESE,112,1.0,2.0,100,0.01,,---,0.00,VWS V14.01,2013-03-23 04:14:00,
2013-03-23 00:19:00,65.0,65.0,29.73,ESE,112,2.0,4.0,100,0.01,,---,0.00,VWS V14.01,2013-03-23 04:19:00,
2013-03-23 00:24:00,65.0,65.0,29.73,ESE,112,0.0,2.0,100,0.01,,---,0.00,VWS V14.01,2013-03-23 04:24:00,
2013-03-23 00:29:00,65.0,65.0,29.74,ESE,112,1.0,5.0,100,0.01,,---,0.00,VWS V14.01,2013-03-23 04:29:00,
2013-03-23 00:34:00,66.0,66.0,29.74,ESE,112,1.0,2.0,100,0.01,,---,0.00,VWS V14.01,2013-03-23 04:34:00,
2013-03-23 00:39:00,66.0,66.0,29.73,ESE,112,1.0,5.0,100,0.00,,---,0.00,VWS V14.01,2013-03-23 04:39:00,
2013-03-23 00:44:00,66.0,66.0,29.73,ESE,112,1.0,2.0,100,0.00,,---,0.00,VWS V14.01,2013-03-23 04:44:00,
2013-03-23 00:49:00,66.0,66.0,29.74,ESE,112,0.0,0.0,100,0.00,,---,0.00,VWS V14.01,2013-03-23 04:49:00,
2013-03-23 00:54:00,66.0,66.0,29.74,ESE,112,1.0,2.0,100,0.00,,---,0.00,VWS V14.01,2013-03-23 04:54:00,
2013-03-23 00:59:00,66.0,66.0,29.73,ESE,112,0.0,0.0,100,0.00,,---,0.00,VWS V14.01,2013-03-23 04:59:00,
2013-03-23 01:04:00,66.0,66.0,29.73,ESE,112,2.0,2.0,100,0.00,,---,0.00,VWS V14.01,2013-03-23 05:04:00,
2013-03-23 01:09:00,66.0,66.0,29.73,ESE,112,2.0,2.0,100,0.00,,---,0.00,VWS V14.01,2013-03-23 05:09:00,
2013-03-23 01:14:00,66.0,66.0,29.73,ESE,112,1.0,3.0,100,0.00,,---,0.00,VWS V14.01,2013-03-23 05:14:00,
2013-03-23 01:19:00,66.0,66.0,29.73,ESE,112,1.0,1.0,100,0.00,,---,0.00,VWS V14.01,2013-03-23 05:19:00,
2013-03-23 01:24:00,66.0,66.0,29.73,ESE,112,1.0,2.0,100,0.00,,---,0.00,VWS V14.01,2013-03-23 05:24:00,
2013-03-23 01:29:00,66.0,66.0,29.73,ESE,112,0.0,2.0,100,0.00,,---,0.00,VWS V14.01,2013-03-23 05:29:00,
2013-03-23 01:34:00,66.0,65.7,29.73,ESE,112,0.0,1.0,99,0.00,,---,0.00,VWS V14.01,2013-03-23 05:34:00,
2013-03-23 01:39:00,66.0,65.4,29.73,ESE,112,0.0,0.0,98,0.00,,---,0.00,VWS V14.01,2013-03-23 05:39:00,
2013-03-23 01:44:00,67.0,66.4,29.73,ESE,112,0.0,0.0,98,0.00,,---,0.00,VWS V14.01,2013-03-23 05:44:00,
2013-03-23 01:49:00,67.0,66.4,29.73,ESE,112,0.0,0.0,98,0.00,,---,0.00,VWS V14.01,2013-03-23 05:49:00,
2013-03-23 01:54:00,66.0,65.4,29.73,ESE,112,0.0,0.0,98,0.00,,---,0.00,VWS V14.01,2013-03-23 05:54:00,
2013-03-23 01:59:00,66.0,65.7,29.72,ESE,112,0.0,1.0,99,0.00,,---,0.00,VWS V14.01,2013-03-23 05:59:00,
2013-03-23 02:04:00,66.0,66.0,29.72,ESE,112,0.0,0.0,100,0.00,,---,0.00,VWS V14.01,2013-03-23 06:04:00,
2013-03-23 02:10:00,66.0,65.7,29.73,ESE,112,0.0,0.0,99,0.00,,---,0.00,VWS V14.01,2013-03-23 06:10:00,
2013-03-23 02:15:00,66.0,66.0,29.73,ESE,112,0.0,0.0,100,0.00,,---,0.00,VWS V14.01,2013-03-23 06:15:00,
2013-03-23 02:20:00,66.0,66.0,29.72,ESE,112,0.0,0.0,100,0.00,,---,0.00,VWS V14.01,2013-03-23 06:20:00,
2013-03-23 02:25:00,66.0,66.0,29.72,ESE,112,0.0,0.0,100,0.00,,---,0.00,VWS V14.01,2013-03-23 06:25:00,
2013-03-23 02:30:00,66.0,66.0,29.71,ESE,112,0.0,0.0,100,0.00,,---,0.00,VWS V14.01,2013-03-23 06:30:00,
2013-03-23 02:35:00,66.0,66.0,29.71,ESE,112,0.0,0.0,100,0.00,,---,0.00,VWS V14.01,2013-03-23 06:35:00,
2013-03-23 02:40:00,66.0,66.0,29.71,ESE,112,0.0,0.0,100,0.00,,---,0.00,VWS V14.01,2013-03-23 06:40:00,
2013-03-23 02:45:00,66.0,66.0,29.71,ESE,112,0.0,2.0,100,0.00,,---,0.00,VWS V14.01,2013-03-23 06:45:00,
2013-03-23 02:50:00,66.0,66.0,29.71,ESE,112,0.0,2.0,100,0.00,,---,0.00,VWS V14.01,2013-03-23 06:50:00,
2013-03-23 02:55:00,66.0,66.0,29.71,SE,135,0.0,0.0,100,0.00,,---,0.00,VWS V14.01,2013-03-23 06:55:00,
2013-03-23 03:00:00,66.0,66.0,29.70,SE,135,0.0,0.0,100,0.00,,---,0.00,VWS V14.01,2013-03-23 07:00:00,
2013-03-23 03:05:00,66.0,66.0,29.70,SE,135,0.0,0.0,100,0.00,,---,0.00,VWS V14.01,2013-03-23 07:05:00,
2013-03-23 03:10:00,66.0,66.0,29.70,SE,135,0.0,0.0,100,0.00,,---,0.00,VWS V14.01,2013-03-23 07:10:00,
2013-03-23 03:15:00,66.0,66.0,29.70,SE,135,0.0,0.0,100,0.00,,---,0.00,VWS V14.01,2013-03-23 07:15:00,
2013-03-23 03:20:00,65.0,65.0,29.69,SE,135,0.0,0.0,100,0.00,,---,0.00,VWS V14.01,2013-03-23 07:20:00,
2013-03-23 03:25:00,65.0,65.0,29.69,SE,135,0.0,0.0,100,0.00,,---,0.00,VWS V14.01,2013-03-23 07:25:00,
2013-03-23 03:30:00,65.0,65.0,29.69,SE,135,0.0,0.0,100,0.00,,---,0.00,VWS V14.01,2013-03-23 07:30:00,
2013-03-23 03:35:00,65.0,65.0,29.69,SE,135,0.0,0.0,100,0.00,,---,0.00,VWS V14.01,2013-03-23 07:35:00,
2013-03-23 03:40:00,65.0,65.0,29.69,SE,135,1.0,2.0,100,0.00,,---,0.00,VWS V14.01,2013-03-23 07:40:00,
2013-03-23 03:45:00,65.0,65.0,29.69,SE,135,0.0,0.0,100,0.00,,---,0.00,VWS V14.01,2013-03-23 07:45:00,
2013-03-23 03:50:00,65.0,65.0,29.69,SE,135,0.0,0.0,100,0.00,,---,0.00,VWS V14.01,2013-03-23 07:50:00,
2013-03-23 03:55:00,65.0,65.0,29.69,SE,135,0.0,0.0,100,0.00,,---,0.00,VWS V14.01,2013-03-23 07:55:00,
2013-03-23 04:00:00,65.0,65.0,29.69,SE,135,0.0,0.0,100,0.00,,---,0.00,VWS V14.01,2013-03-23 08:00:00,
2013-03-23 04:05:00,65.0,65.0,29.69,SE,135,0.0,0.0,100,0.00,,---,0.00,VWS V14.01,2013-03-23 08:05:00,
2013-03-23 04:10:00,65.0,65.0,29.69,SE,135,0.0,0.0,100,0.00,,---,0.00,VWS V14.01,2013-03-23 08:10:00,
2013-03-23 04:15:00,64.0,64.0,29.69,SE,135,0.0,0.0,100,0.00,,---,0.00,VWS V14.01,2013-03-23 08:15:00,
2013-03-23 04:20:00,64.0,64.0,29.69,SE,135,0.0,0.0,100,0.00,,---,0.00,VWS V14.01,2013-03-23 08:20:00,
2013-03-23 04:25:00,64.0,64.0,29.69,SE,135,0.0,0.0,100,0.00,,---,0.00,VWS V14.01,2013-03-23 08:25:00,
2013-03-23 04:30:00,64.0,64.0,29.68,SE,135,0.0,0.0,100,0.00,,---,0.00,VWS V14.01,2013-03-23 08:30:00,
2013-03-23 04:35:00,64.0,64.0,29.68,SE,135,0.0,0.0,100,0.00,,---,0.00,VWS V14.01,2013-03-23 08:35:00,
2013-03-23 04:40:00,64.0,64.0,29.68,SE,135,0.0,0.0,100,0.00,,---,0.00,VWS V14.01,2013-03-23 08:40:00,
2013-03-23 04:45:00,64.0,64.0,29.68,SE,135,0.0,0.0,100,0.00,,---,0.00,VWS V14.01,2013-03-23 08:45:00,
2013-03-23 04:50:00,64.0,64.0,29.67,SE,135,0.0,0.0,100,0.00,,---,0.00,VWS V14.01,2013-03-23 08:50:00,
2013-03-23 04:55:00,64.0,64.0,29.67,SE,135,0.0,0.0,100,0.00,,---,0.00,VWS V14.01,2013-03-23 08:55:00,
2013-03-23 05:00:00,64.0,64.0,29.67,SE,135,0.0,0.0,100,0.00,,---,0.00,VWS V14.01,2013-03-23 09:00:00,
2013-03-23 05:05:00,64.0,64.0,29.67,SE,135,0.0,0.0,100,0.00,,---,0.00,VWS V14.01,2013-03-23 09:05:00,
2013-03-23 05:10:00,64.0,64.0,29.67,SE,135,0.0,0.0,100,0.00,,---,0.00,VWS V14.01,2013-03-23 09:10:00,
2013-03-23 05:15:00,64.0,64.0,29.67,SE,135,0.0,0.0,100,0.00,,---,0.00,VWS V14.01,2013-03-23 09:15:00,
2013-03-23 05:20:00,64.0,64.0,29.67,SE,135,0.0,0.0,100,0.00,,---,0.00,VWS V14.01,2013-03-23 09:20:00,
2013-03-23 05:25:00,65.0,65.0,29.67,SE,135,0.0,0.0,100,0.00,,---,0.00,VWS V14.01,2013-03-23 09:25:00,
2013-03-23 05:30:00,65.0,65.0,29.66,SE,135,0.0,0.0,100,0.00,,---,0.00,VWS V14.01,2013-03-23 09:30:00,
2013-03-23 05:35:00,65.0,65.0,29.66,SE,135,0.0,0.0,100,0.00,,---,0.00,VWS V14.01,2013-03-23 09:35:00,
2013-03-23 05:40:00,65.0,65.0,29.67,SE,135,0.0,0.0,100,0.00,,---,0.00,VWS V14.01,2013-03-23 09:40:00,
2013-03-23 05:45:00,65.0,65.0,29.67,SE,135,0.0,0.0,100,0.00,,---,0.00,VWS V14.01,2013-03-23 09:45:00,
2013-03-23 05:50:00,65.0,65.0,29.67,SE,135,0.0,0.0,100,0.00,,---,0.00,VWS V14.01,2013-03-23 09:50:00,
2013-03-23 05:55:00,65.0,65.0,29.67,SE,135,0.0,0.0,100,0.00,,---,0.00,VWS V14.01,2013-03-23 09:55:00,
2013-03-23 06:00:00,65.0,65.0,29.67,SE,135,0.0,0.0,100,0.00,,---,0.00,VWS V14.01,2013-03-23 10:00:00,
2013-03-23 06:05:00,65.0,65.0,29.67,SE,135,0.0,0.0,100,0.00,,---,0.00,VWS V14.01,2013-03-23 10:05:00,
2013-03-23 06:10:00,65.0,65.0,29.67,SE,135,0.0,0.0,100,0.00,,---,0.00,VWS V14.01,2013-03-23 10:10:00,
2013-03-23 06:15:00,65.0,65.0,29.67,SE,135,0.0,0.0,100,0.00,,---,0.00,VWS V14.01,2013-03-23 10:15:00,
2013-03-23 06:20:00,66.0,66.0,29.67,SE,135,0.0,0.0,100,0.00,,---,0.00,VWS V14.01,2013-03-23 10:20:00,
2013-03-23 06:25:00,66.0,66.0,29.67,SE,135,0.0,0.0,100,0.00,,---,0.00,VWS V14.01,2013-03-23 10:25:00,
2013-03-23 06:30:00,66.0,66.0,29.67,SE,135,0.0,0.0,100,0.00,,---,0.00,VWS V14.01,2013-03-23 10:30:00,
2013-03-23 06:35:00,66.0,66.0,29.67,SE,135,0.0,0.0,100,0.00,,---,0.00,VWS V14.01,2013-03-23 10:35:00,
2013-03-23 06:42:00,66.0,66.0,29.68,SE,135,0.0,0.0,100,0.00,,---,0.00,VWS V14.01,2013-03-23 10:42:00,
2013-03-23 06:47:00,66.0,66.0,29.68,SE,135,0.0,0.0,100,0.00,,---,0.00,VWS V14.01,2013-03-23 10:47:00,
2013-03-23 06:52:00,66.0,66.0,29.68,SE,135,0.0,0.0,100,0.00,,---,0.00,VWS V14.01,2013-03-23 10:52:00,
2013-03-23 06:57:00,66.0,66.0,29.68,SE,135,0.0,0.0,100,0.00,,---,0.00,VWS V14.01,2013-03-23 10:57:00,
2013-03-23 07:02:00,66.0,66.0,29.68,SE,135,0.0,0.0,100,0.00,,---,0.00,VWS V14.01,2013-03-23 11:02:00,
2013-03-23 07:08:00,66.0,66.0,29.69,SE,135,0.0,0.0,100,0.00,,---,0.00,VWS V14.01,2013-03-23 11:08:00,
2013-03-23 07:13:00,66.0,66.0,29.69,SE,135,0.0,0.0,100,0.00,,---,0.00,VWS V14.01,2013-03-23 11:13:00,
2013-03-23 07:18:00,66.0,66.0,29.69,SE,135,0.0,0.0,100,0.00,,---,0.00,VWS V14.01,2013-03-23 11:18:00,
2013-03-23 07:23:00,67.0,67.0,29.69,SE,135,0.0,0.0,100,0.00,,---,0.00,VWS V14.01,2013-03-23 11:23:00,
2013-03-23 07:28:00,67.0,67.0,29.69,SE,135,0.0,0.0,100,0.00,,---,0.00,VWS V14.01,2013-03-23 11:28:00,
2013-03-23 07:33:00,67.0,67.0,29.69,SE,135,0.0,1.0,100,0.00,,---,0.00,VWS V14.01,2013-03-23 11:33:00,
2013-03-23 07:38:00,67.0,67.0,29.69,South,180,0.0,4.0,100,0.00,,---,0.00,VWS V14.01,2013-03-23 11:38:00,
2013-03-23 07:43:00,67.0,67.0,29.69,South,180,2.0,3.0,100,0.00,,---,0.00,VWS V14.01,2013-03-23 11:43:00,
2013-03-23 07:48:00,68.0,68.0,29.69,South,180,0.0,0.0,100,0.00,,---,0.00,VWS V14.01,2013-03-23 11:48:00,
2013-03-23 07:53:00,68.0,68.0,29.69,SE,135,0.0,0.0,100,0.00,,---,0.00,VWS V14.01,2013-03-23 11:53:00,
2013-03-23 07:58:00,68.0,68.0,29.69,SE,135,0.0,0.0,100,0.00,,---,0.00,VWS V14.01,2013-03-23 11:58:00,
2013-03-23 08:03:00,68.0,68.0,29.69,SE,135,0.0,0.0,100,0.00,,---,0.00,VWS V14.01,2013-03-23 12:03:00,
2013-03-23 08:09:00,68.0,68.0,29.69,SE,135,1.0,3.0,100,0.00,,---,0.00,VWS V14.01,2013-03-23 12:09:00,
2013-03-23 08:14:00,68.0,68.0,29.69,SE,135,0.0,0.0,100,0.00,,---,0.00,VWS V14.01,2013-03-23 12:14:00,
2013-03-23 08:20:00,68.0,68.0,29.69,SE,135,0.0,2.0,100,0.00,,---,0.00,VWS V14.01,2013-03-23 12:20:00,
2013-03-23 08:25:00,68.0,68.0,29.69,SE,135,0.0,0.0,100,0.00,,---,0.00,VWS V14.01,2013-03-23 12:25:00,
2013-03-23 08:30:00,69.0,69.0,29.69,SE,135,0.0,1.0,100,0.00,,---,0.00,VWS V14.01,2013-03-23 12:30:00,
2013-03-23 08:35:00,69.0,69.0,29.69,SSW,202,0.0,1.0,100,0.00,,---,0.00,VWS V14.01,2013-03-23 12:35:00,
2013-03-23 08:40:00,69.0,69.0,29.69,SSW,202,0.0,0.0,100,0.00,,---,0.00,VWS V14.01,2013-03-23 12:40:00,
2013-03-23 08:45:00,69.0,69.0,29.69,South,180,2.0,2.0,100,0.00,,---,0.00,VWS V14.01,2013-03-23 12:45:00,
2013-03-23 08:50:00,69.0,69.0,29.69,South,180,1.0,3.0,100,0.00,,---,0.00,VWS V14.01,2013-03-23 12:50:00,
2013-03-23 08:55:00,70.0,70.0,29.69,South,180,0.0,0.0,100,0.00,,---,0.00,VWS V14.01,2013-03-23 12:55:00,
2013-03-23 09:01:00,70.0,70.0,29.69,SSE,157,0.0,2.0,100,0.00,,---,0.00,VWS V14.01,2013-03-23 13:01:00,
2013-03-23 09:07:00,70.0,70.0,29.68,SSE,157,1.0,2.0,100,0.00,,---,0.00,VWS V14.01,2013-03-23 13:07:00,
2013-03-23 09:12:00,70.0,70.0,29.68,SSE,157,0.0,0.0,100,0.00,,---,0.00,VWS V14.01,2013-03-23 13:12:00,
2013-03-23 09:18:00,71.0,71.0,29.68,South,180,0.0,1.0,100,0.00,,---,0.00,VWS V14.01,2013-03-23 13:18:00,
2013-03-23 09:23:00,71.0,71.0,29.68,SE,135,3.0,6.0,100,0.00,,---,0.00,VWS V14.01,2013-03-23 13:23:00,
2013-03-23 09:29:00,71.0,71.0,29.68,NNW,337,0.0,0.0,100,0.00,,---,0.00,VWS V14.01,2013-03-23 13:29:00,
2013-03-23 09:34:00,72.0,72.0,29.68,SSW,202,2.0,3.0,100,0.00,,---,0.00,VWS V14.01,2013-03-23 13:34:00,
2013-03-23 09:39:00,72.0,71.7,29.68,SE,135,2.0,6.0,99,0.00,,---,0.00,VWS V14.01,2013-03-23 13:39:00,
2013-03-23 09:44:00,72.0,71.7,29.68,SW,225,1.0,1.0,99,0.00,,---,0.00,VWS V14.01,2013-03-23 13:44:00,
2013-03-23 09:49:00,73.0,72.1,29.67,SW,225,2.0,3.0,97,0.00,,---,0.00,VWS V14.01,2013-03-23 13:49:00,
2013-03-23 09:54:00,73.0,72.4,29.67,SW,225,0.0,4.0,98,0.00,,---,0.00,VWS V14.01,2013-03-23 13:54:00,
2013-03-23 09:59:00,73.0,71.8,29.67,WNW,292,1.0,6.0,96,0.00,,---,0.00,VWS V14.01,2013-03-23 13:59:00,
2013-03-23 10:04:00,73.0,71.8,29.67,West,270,0.0,0.0,96,0.00,,---,0.00,VWS V14.01,2013-03-23 14:04:00,
2013-03-23 10:09:00,74.0,72.8,29.66,NNE,22,0.0,4.0,96,0.00,,---,0.00,VWS V14.01,2013-03-23 14:09:00,
2013-03-23 10:14:00,74.0,72.2,29.66,South,180,0.0,6.0,94,0.00,,---,0.00,VWS V14.01,2013-03-23 14:14:00,
2013-03-23 10:19:00,75.0,73.5,29.65,SE,135,1.0,6.0,95,0.00,,---,0.00,VWS V14.01,2013-03-23 14:19:00,
2013-03-23 10:24:00,75.0,72.2,29.65,South,180,2.0,4.0,91,0.00,,---,0.00,VWS V14.01,2013-03-23 14:24:00,
2013-03-23 10:29:00,76.0,73.2,29.65,SSE,157,4.0,5.0,91,0.00,,---,0.00,VWS V14.01,2013-03-23 14:29:00,
2013-03-23 10:34:00,76.0,72.5,29.65,SW,225,0.0,6.0,89,0.00,,---,0.00,VWS V14.01,2013-03-23 14:34:00,
2013-03-23 10:39:00,77.0,73.8,29.64,SW,225,1.0,3.0,90,0.00,,---,0.00,VWS V14.01,2013-03-23 14:39:00,
2013-03-23 10:44:00,78.0,74.2,29.64,SE,135,0.0,4.0,88,0.00,,---,0.00,VWS V14.01,2013-03-23 14:44:00,
2013-03-23 10:49:00,78.0,72.4,29.64,WSW,247,3.0,6.0,83,0.00,,---,0.00,VWS V14.01,2013-03-23 14:49:00,
2013-03-23 10:54:00,79.0,71.9,29.64,WSW,247,4.0,8.0,79,0.00,,---,0.00,VWS V14.01,2013-03-23 14:54:00,
2013-03-23 10:59:00,79.0,73.4,29.63,SE,135,2.0,4.0,83,0.00,,---,0.00,VWS V14.01,2013-03-23 14:59:00,
2013-03-23 11:04:00,80.0,72.5,29.63,SE,135,4.0,4.0,78,0.00,,---,0.00,VWS V14.01,2013-03-23 15:04:00,
2013-03-23 11:09:00,81.0,73.1,29.62,SE,135,3.0,4.0,77,0.00,,---,0.00,VWS V14.01,2013-03-23 15:09:00,
2013-03-23 11:14:00,81.0,71.9,29.62,South,180,5.0,6.0,74,0.00,,---,0.00,VWS V14.01,2013-03-23 15:14:00,
2013-03-23 11:20:00,82.0,72.5,29.61,WSW,247,6.0,6.0,73,0.00,,---,0.00,VWS V14.01,2013-03-23 15:20:00,
2013-03-23 11:25:00,82.0,70.8,29.61,South,180,5.0,8.0,69,0.00,,---,0.00,VWS V14.01,2013-03-23 15:25:00,
2013-03-23 11:30:00,82.0,71.7,29.61,SSW,202,3.0,6.0,71,0.00,,---,0.00,VWS V14.01,2013-03-23 15:30:00,
2013-03-23 11:37:00,83.0,72.2,29.61,SW,225,0.0,5.0,70,0.00,,---,0.00,VWS V14.01,2013-03-23 15:37:00,
2013-03-23 11:43:00,84.0,73.6,29.61,SW,225,1.0,3.0,71,0.00,,---,0.00,VWS V14.01,2013-03-23 15:43:00,
2013-03-23 11:48:00,84.0,71.9,29.60,WSW,247,3.0,10.0,67,0.00,,---,0.00,VWS V14.01,2013-03-23 15:48:00,
2013-03-23 11:54:00,84.0,71.0,29.60,SE,135,6.0,6.0,65,0.00,,---,0.00,VWS V14.01,2013-03-23 15:54:00,
2013-03-23 11:59:00,85.0,72.8,29.59,South,180,6.0,6.0,67,0.00,,---,0.00,VWS V14.01,2013-03-23 15:59:00,
2013-03-23 12:04:00,85.0,71.5,29.59,SE,135,2.0,4.0,64,0.00,,---,0.00,VWS V14.01,2013-03-23 16:04:00,
2013-03-23 12:09:00,85.0,71.9,29.59,WSW,247,1.0,6.0,65,0.00,,---,0.00,VWS V14.01,2013-03-23 16:09:00,
2013-03-23 12:15:00,83.0,71.4,29.59,SW,225,2.0,5.0,68,0.00,,---,0.00,VWS V14.01,2013-03-23 16:15:00,
2013-03-23 12:20:00,83.0,71.8,29.59,South,180,4.0,5.0,69,0.00,,---,0.00,VWS V14.01,2013-03-23 16:20:00,
2013-03-23 12:25:00,83.0,70.9,29.59,West,270,3.0,7.0,67,0.00,,---,0.00,VWS V14.01,2013-03-23 16:25:00,
2013-03-23 12:30:00,83.0,71.8,29.59,SSE,157,3.0,6.0,69,0.00,,---,0.00,VWS V14.01,2013-03-23 16:30:00,
2013-03-23 12:35:00,83.0,71.8,29.59,SW,225,3.0,7.0,69,0.00,,---,0.00,VWS V14.01,2013-03-23 16:35:00,
2013-03-23 12:40:00,84.0,73.2,29.59,SE,135,2.0,7.0,70,0.00,,---,0.00,VWS V14.01,2013-03-23 16:40:00,
2013-03-23 12:46:00,84.0,71.9,29.59,East,90,4.0,4.0,67,0.00,,---,0.00,VWS V14.01,2013-03-23 16:46:00,
2013-03-23 12:52:00,85.0,73.3,29.57,ESE,112,0.0,2.0,68,0.00,,---,0.00,VWS V14.01,2013-03-23 16:52:00,
2013-03-23 12:57:00,86.0,72.4,29.56,SSE,157,1.0,5.0,64,0.00,,---,0.00,VWS V14.01,2013-03-23 16:57:00,
2013-03-23 13:02:00,85.0,71.9,29.56,WSW,247,6.0,6.0,65,0.00,,---,0.00,VWS V14.01,2013-03-23 17:02:00,
2013-03-23 13:07:00,85.0,71.0,29.57,WSW,247,3.0,6.0,63,0.00,,---,0.00,VWS V14.01,2013-03-23 17:07:00,
2013-03-23 13:12:00,85.0,70.1,29.57,West,270,3.0,5.0,61,0.00,,---,0.00,VWS V14.01,2013-03-23 17:12:00,
2013-03-23 13:17:00,86.0,71.0,29.55,SW,225,2.0,9.0,61,0.00,,---,0.00,VWS V14.01,2013-03-23 17:17:00,
2013-03-23 13:22:00,86.0,71.0,29.55,East,90,1.0,6.0,61,0.00,,---,0.00,VWS V14.01,2013-03-23 17:22:00,
2013-03-23 13:27:00,86.0,70.0,29.55,South,180,4.0,7.0,59,0.00,,---,0.00,VWS V14.01,2013-03-23 17:27:00,
2013-03-23 13:32:00,86.0,70.5,29.55,South,180,2.0,5.0,60,0.00,,---,0.00,VWS V14.01,2013-03-23 17:32:00,
2013-03-23 13:37:00,87.0,68.9,29.54,SW,225,2.0,15.0,55,0.00,,---,0.00,VWS V14.01,2013-03-23 17:37:00,
2013-03-23 13:42:00,86.0,68.0,29.54,South,180,1.0,8.0,55,0.00,,---,0.00,VWS V14.01,2013-03-23 17:42:00,
2013-03-23 13:47:00,86.0,68.5,29.54,SW,225,4.0,8.0,56,0.00,,---,0.00,VWS V14.01,2013-03-23 17:47:00,
2013-03-23 13:52:00,87.0,69.4,29.54,South,180,2.0,7.0,56,0.00,,---,0.00,VWS V14.01,2013-03-23 17:52:00,
2013-03-23 13:57:00,87.0,67.3,29.53,SW,225,4.0,9.0,52,0.00,,---,0.00,VWS V14.01,2013-03-23 17:57:00,
2013-03-23 14:03:00,87.0,69.4,29.53,SW,225,4.0,7.0,56,0.00,,---,0.00,VWS V14.01,2013-03-23 18:03:00,
2013-03-23 14:09:00,88.0,68.2,29.52,West,270,6.0,7.0,52,0.00,,---,0.00,VWS V14.01,2013-03-23 18:09:00,
2013-03-23 14:14:00,88.0,67.1,29.52,West,270,9.0,10.0,50,0.00,,---,0.00,VWS V14.01,2013-03-23 18:14:00,
2013-03-23 14:19:00,88.0,69.3,29.52,SW,225,3.0,5.0,54,0.00,,---,0.00,VWS V14.01,2013-03-23 18:19:00,
2013-03-23 14:24:00,88.0,66.5,29.52,West,270,4.0,9.0,49,0.00,,---,0.00,VWS V14.01,2013-03-23 18:24:00,
2013-03-23 14:29:00,87.0,68.4,29.51,SSE,157,3.0,9.0,54,0.00,,---,0.00,VWS V14.01,2013-03-23 18:29:00,
2013-03-23 14:35:00,89.0,68.5,29.51,West,270,1.0,5.0,51,0.00,,---,0.00,VWS V14.01,2013-03-23 18:35:00,
2013-03-23 14:40:00,88.0,68.2,29.50,SW,225,2.0,7.0,52,0.00,,---,0.00,VWS V14.01,2013-03-23 18:40:00,
2013-03-23 14:45:00,88.0,68.7,29.50,SSE,157,3.0,5.0,53,0.00,,---,0.00,VWS V14.01,2013-03-23 18:45:00,
2013-03-23 14:50:00,87.0,68.9,29.51,SW,225,5.0,5.0,55,0.00,,---,0.00,VWS V14.01,2013-03-23 18:50:00,
2013-03-23 14:57:00,88.0,68.7,29.50,SW,225,3.0,10.0,53,0.00,,---,0.00,VWS V14.01,2013-03-23 18:57:00,
2013-03-23 15:02:00,86.0,68.5,29.50,West,270,3.0,6.0,56,0.00,,---,0.00,VWS V14.01,2013-03-23 19:02:00,
2013-03-23 15:07:00,87.0,69.4,29.50,WSW,247,5.0,6.0,56,0.00,,---,0.00,VWS V14.01,2013-03-23 19:07:00,
2013-03-23 15:12:00,88.0,70.3,29.50,South,180,3.0,6.0,56,0.00,,---,0.00,VWS V14.01,2013-03-23 19:12:00,
2013-03-23 15:17:00,89.0,69.1,29.48,SE,135,6.0,10.0,52,0.00,,---,0.00,VWS V14.01,2013-03-23 19:17:00,
2013-03-23 15:22:00,88.0,68.7,29.48,WSW,247,8.0,8.0,53,0.00,,---,0.00,VWS V14.01,2013-03-23 19:22:00,
2013-03-23 15:27:00,89.0,68.5,29.48,West,270,2.0,9.0,51,0.00,,---,0.00,VWS V14.01,2013-03-23 19:27:00,
2013-03-23 15:32:00,90.0,69.5,29.48,SW,225,0.0,4.0,51,0.00,,---,0.00,VWS V14.01,2013-03-23 19:32:00,
2013-03-23 15:38:00,90.0,68.3,29.46,West,270,4.0,9.0,49,0.00,,---,0.00,VWS V14.01,2013-03-23 19:38:00,
2013-03-23 15:43:00,89.0,68.0,29.46,SSW,202,6.0,7.0,50,0.00,,---,0.00,VWS V14.01,2013-03-23 19:43:00,
2013-03-23 15:48:00,88.0,68.7,29.47,SW,225,5.0,7.0,53,0.00,,---,0.00,VWS V14.01,2013-03-23 19:48:00,
2013-03-23 15:53:00,89.0,65.6,29.47,SW,225,13.0,14.0,46,0.00,,---,0.00,VWS V14.01,2013-03-23 19:53:00,
2013-03-23 15:58:00,89.0,67.4,29.45,WSW,247,6.0,9.0,49,0.00,,---,0.00,VWS V14.01,2013-03-23 19:58:00,
2013-03-23 16:03:00,89.0,68.5,29.45,SW,225,2.0,8.0,51,0.00,,---,0.00,VWS V14.01,2013-03-23 20:03:00,
2013-03-23 16:08:00,89.0,65.6,29.45,West,270,8.0,10.0,46,0.00,,---,0.00,VWS V14.01,2013-03-23 20:08:00,
2013-03-23 16:13:00,88.0,66.5,29.45,SW,225,4.0,9.0,49,0.00,,---,0.00,VWS V14.01,2013-03-23 20:13:00,
2013-03-23 16:18:00,87.0,66.7,29.45,SW,225,5.0,6.0,51,0.00,,---,0.00,VWS V14.01,2013-03-23 20:18:00,
2013-03-23 16:24:00,86.0,67.4,29.45,WSW,247,1.0,10.0,54,0.00,,---,0.00,VWS V14.01,2013-03-23 20:24:00,
2013-03-23 16:29:00,87.0,68.4,29.44,SE,135,3.0,7.0,54,0.00,,---,0.00,VWS V14.01,2013-03-23 20:29:00,
2013-03-23 16:34:00,87.0,69.4,29.44,SSW,202,2.0,6.0,56,0.00,,---,0.00,VWS V14.01,2013-03-23 20:34:00,
2013-03-23 16:39:00,88.0,69.3,29.43,SW,225,6.0,6.0,54,0.00,,---,0.00,VWS V14.01,2013-03-23 20:39:00,
2013-03-23 16:44:00,88.0,68.2,29.43,WSW,247,7.0,9.0,52,0.00,,---,0.00,VWS V14.01,2013-03-23 20:44:00,
2013-03-23 16:49:00,88.0,67.6,29.43,West,270,6.0,12.0,51,0.00,,---,0.00,VWS V14.01,2013-03-23 20:49:00,
2013-03-23 16:54:00,87.0,68.4,29.43,West,270,6.0,6.0,54,0.00,,---,0.00,VWS V14.01,2013-03-23 20:54:00,
2013-03-23 17:00:00,87.0,67.3,29.43,SW,225,3.0,6.0,52,0.00,,---,0.00,VWS V14.01,2013-03-23 21:00:00,
2013-03-23 17:05:00,87.0,64.3,29.43,SW,225,6.0,8.0,47,0.00,,---,0.00,VWS V14.01,2013-03-23 21:05:00,
2013-03-23 17:10:00,88.0,63.4,29.43,South,180,7.0,7.0,44,0.00,,---,0.00,VWS V14.01,2013-03-23 21:10:00,
2013-03-23 17:15:00,89.0,63.0,29.43,South,180,5.0,10.0,42,0.00,,---,0.00,VWS V14.01,2013-03-23 21:15:00,
2013-03-23 17:20:00,88.0,63.4,29.43,WNW,292,3.0,7.0,44,0.00,,---,0.00,VWS V14.01,2013-03-23 21:20:00,
2013-03-23 17:25:00,88.0,62.0,29.43,SW,225,6.0,10.0,42,0.00,,---,0.00,VWS V14.01,2013-03-23 21:25:00,
2013-03-23 17:31:00,88.0,62.7,29.43,West,270,3.0,8.0,43,0.00,,---,0.00,VWS V14.01,2013-03-23 21:31:00,
2013-03-23 17:37:00,88.0,62.0,29.43,SE,135,1.0,12.0,42,0.00,,---,0.00,VWS V14.01,2013-03-23 21:37:00,
2013-03-23 17:42:00,87.0,61.2,29.43,WSW,247,2.0,10.0,42,0.00,,---,0.00,VWS V14.01,2013-03-23 21:42:00,
2013-03-23 17:47:00,87.0,61.8,29.44,WSW,247,6.0,7.0,43,0.00,,---,0.00,VWS V14.01,2013-03-23 21:47:00,
2013-03-23 17:52:00,86.0,61.6,29.44,SW,225,7.0,7.0,44,0.00,,---,0.00,VWS V14.01,2013-03-23 21:52:00,
2013-03-23 17:57:00,86.0,61.6,29.45,SW,225,6.0,6.0,44,0.00,,---,0.00,VWS V14.01,2013-03-23 21:57:00,
2013-03-23 18:02:00,85.0,61.3,29.45,SW,225,7.0,12.0,45,0.00,,---,0.00,VWS V14.01,2013-03-23 22:02:00,
2013-03-23 18:07:00,86.0,61.6,29.45,SW,225,4.0,5.0,44,0.00,,---,0.00,VWS V14.01,2013-03-23 22:07:00,
2013-03-23 18:13:00,85.0,61.9,29.45,West,270,6.0,9.0,46,0.00,,---,0.00,VWS V14.01,2013-03-23 22:13:00,
2013-03-23 18:19:00,85.0,62.5,29.45,SW,225,5.0,10.0,47,0.00,,---,0.00,VWS V14.01,2013-03-23 22:19:00,
2013-03-23 18:24:00,85.0,62.5,29.45,West,270,5.0,7.0,47,0.00,,---,0.00,VWS V14.01,2013-03-23 22:24:00,
2013-03-23 18:29:00,85.0,62.5,29.46,West,270,12.0,13.0,47,0.00,,---,0.00,VWS V14.01,2013-03-23 22:29:00,
2013-03-23 18:35:00,85.0,62.5,29.46,West,270,2.0,6.0,47,0.00,,---,0.00,VWS V14.01,2013-03-23 22:35:00,
2013-03-23 18:40:00,85.0,62.5,29.47,NW,315,7.0,9.0,47,0.00,,---,0.00,VWS V14.01,2013-03-23 22:40:00,
2013-03-23 18:45:00,85.0,63.1,29.47,WSW,247,1.0,6.0,48,0.00,,---,0.00,VWS V14.01,2013-03-23 22:45:00,
2013-03-23 18:50:00,84.0,62.2,29.47,West,270,6.0,9.0,48,0.00,,---,0.00,VWS V14.01,2013-03-23 22:50:00,
2013-03-23 18:55:00,84.0,62.8,29.47,SW,225,7.0,7.0,49,0.00,,---,0.00,VWS V14.01,2013-03-23 22:55:00,
2013-03-23 19:00:00,83.0,63.0,29.48,West,270,2.0,10.0,51,0.00,,---,0.00,VWS V14.01,2013-03-23 23:00:00,
2013-03-23 19:05:00,83.0,63.0,29.48,WSW,247,5.0,10.0,51,0.00,,---,0.00,VWS V14.01,2013-03-23 23:05:00,
2013-03-23 19:11:00,83.0,64.1,29.49,SW,225,7.0,7.0,53,0.00,,---,0.00,VWS V14.01,2013-03-23 23:11:00,
2013-03-23 19:17:00,82.0,63.7,29.49,WSW,247,1.0,8.0,54,0.00,,---,0.00,VWS V14.01,2013-03-23 23:17:00,
2013-03-23 19:23:00,82.0,63.7,29.49,WSW,247,6.0,7.0,54,0.00,,---,0.00,VWS V14.01,2013-03-23 23:23:00,
2013-03-23 19:28:00,81.0,63.8,29.49,WSW,247,4.0,6.0,56,0.00,,---,0.00,VWS V14.01,2013-03-23 23:28:00,
2013-03-23 19:33:00,81.0,64.3,29.49,SW,225,2.0,6.0,57,0.00,,---,0.00,VWS V14.01,2013-03-23 23:33:00,
2013-03-23 19:38:00,81.0,64.8,29.50,SW,225,6.0,7.0,58,0.00,,---,0.00,VWS V14.01,2013-03-23 23:38:00,
2013-03-23 19:43:00,80.0,64.4,29.50,SW,225,4.0,6.0,59,0.00,,---,0.00,VWS V14.01,2013-03-23 23:43:00,
2013-03-23 19:48:00,80.0,65.4,29.51,WSW,247,3.0,7.0,61,0.00,,---,0.00,VWS V14.01,2013-03-23 23:48:00,
2013-03-23 19:54:00,80.0,65.4,29.51,SW,225,3.0,3.0,61,0.00,,---,0.00,VWS V14.01,2013-03-23 23:54:00,
2013-03-23 19:59:00,79.0,65.3,29.51,SW,225,3.0,4.0,63,0.00,,---,0.00,VWS V14.01,2013-03-23 23:59:00,
2013-03-23 20:04:00,79.0,65.3,29.51,WSW,247,2.0,6.0,63,0.00,,---,0.00,VWS V14.01,2013-03-24 00:04:00,
2013-03-23 20:09:00,79.0,65.8,29.52,SW,225,0.0,0.0,64,0.00,,---,0.00,VWS V14.01,2013-03-24 00:09:00,
2013-03-23 20:14:00,79.0,65.8,29.52,SW,225,0.0,3.0,64,0.00,,---,0.00,VWS V14.01,2013-03-24 00:14:00,
2013-03-23 20:19:00,78.0,64.8,29.52,SW,225,1.0,4.0,64,0.00,,---,0.00,VWS V14.01,2013-03-24 00:19:00,
2013-03-23 20:24:00,78.0,65.7,29.52,SW,225,0.0,2.0,66,0.00,,---,0.00,VWS V14.01,2013-03-24 00:24:00,
2013-03-23 20:30:00,78.0,66.2,29.53,West,270,0.0,0.0,67,0.00,,---,0.00,VWS V14.01,2013-03-24 00:30:00,
2013-03-23 20:35:00,77.0,65.6,29.53,West,270,0.0,0.0,68,0.00,,---,0.00,VWS V14.01,2013-03-24 00:35:00,
2013-03-23 20:40:00,77.0,66.5,29.54,West,270,0.0,0.0,70,0.00,,---,0.00,VWS V14.01,2013-03-24 00:40:00,
2013-03-23 20:45:00,76.0,65.9,29.54,West,270,0.0,0.0,71,0.00,,---,0.00,VWS V14.01,2013-03-24 00:45:00,
2013-03-23 20:51:00,75.0,65.4,29.55,West,270,0.0,0.0,72,0.00,,---,0.00,VWS V14.01,2013-03-24 00:51:00,
2013-03-23 20:58:00,75.0,66.2,29.55,West,270,0.0,0.0,74,0.00,,---,0.00,VWS V14.01,2013-03-24 00:58:00,
2013-03-23 21:03:00,74.0,66.3,29.55,West,270,0.0,0.0,77,0.00,,---,0.00,VWS V14.01,2013-03-24 01:03:00,
2013-03-23 21:08:00,74.0,66.7,29.56,West,270,0.0,0.0,78,0.00,,---,0.00,VWS V14.01,2013-03-24 01:08:00,
2013-03-23 21:13:00,73.0,66.1,29.56,West,270,0.0,0.0,79,0.00,,---,0.00,VWS V14.01,2013-03-24 01:13:00,
2013-03-23 21:18:00,72.0,65.5,29.57,West,270,0.0,0.0,80,0.00,,---,0.00,VWS V14.01,2013-03-24 01:18:00,
2013-03-23 21:23:00,72.0,66.2,29.57,West,270,0.0,0.0,82,0.00,,---,0.00,VWS V14.01,2013-03-24 01:23:00,
2013-03-23 21:28:00,71.0,65.6,29.58,West,270,0.0,0.0,83,0.00,,---,0.00,VWS V14.01,2013-03-24 01:28:00,
2013-03-23 21:33:00,71.0,65.9,29.58,West,270,0.0,0.0,84,0.00,,---,0.00,VWS V14.01,2013-03-24 01:33:00,
2013-03-23 21:38:00,71.0,66.6,29.59,West,270,0.0,0.0,86,0.00,,---,0.00,VWS V14.01,2013-03-24 01:38:00,
2013-03-23 21:43:00,70.0,65.6,29.59,West,270,0.0,0.0,86,0.00,,---,0.00,VWS V14.01,2013-03-24 01:43:00,
2013-03-23 21:48:00,70.0,65.6,29.60,West,270,0.0,0.0,86,0.00,,---,0.00,VWS V14.01,2013-03-24 01:48:00,
2013-03-23 21:53:00,70.0,66.0,29.60,West,270,0.0,0.0,87,0.00,,---,0.00,VWS V14.01,2013-03-24 01:53:00,
2013-03-23 21:58:00,70.0,65.6,29.60,West,270,0.0,0.0,86,0.00,,---,0.00,VWS V14.01,2013-03-24 01:58:00,
2013-03-23 22:03:00,70.0,66.3,29.60,West,270,0.0,0.0,88,0.00,,---,0.00,VWS V14.01,2013-03-24 02:03:00,
2013-03-23 22:08:00,70.0,66.0,29.61,West,270,0.0,0.0,87,0.00,,---,0.00,VWS V14.01,2013-03-24 02:08:00,
2013-03-23 22:13:00,69.0,65.0,29.61,West,270,0.0,0.0,87,0.00,,---,0.00,VWS V14.01,2013-03-24 02:13:00,
2013-03-23 22:18:00,70.0,66.6,29.61,West,270,0.0,0.0,89,0.00,,---,0.00,VWS V14.01,2013-03-24 02:18:00,
2013-03-23 22:23:00,69.0,65.9,29.61,West,270,0.0,0.0,90,0.00,,---,0.00,VWS V14.01,2013-03-24 02:23:00,
2013-03-23 22:28:00,69.0,66.3,29.62,West,270,0.0,0.0,91,0.00,,---,0.00,VWS V14.01,2013-03-24 02:28:00,
2013-03-23 22:33:00,69.0,66.6,29.62,West,270,0.0,0.0,92,0.00,,---,0.00,VWS V14.01,2013-03-24 02:33:00,
2013-03-23 22:38:00,70.0,67.9,29.62,West,270,0.0,0.0,93,0.00,,---,0.00,VWS V14.01,2013-03-24 02:38:00,
2013-03-23 22:43:00,70.0,68.2,29.62,North,360,0.0,5.0,94,0.00,,---,0.00,VWS V14.01,2013-03-24 02:43:00,
2013-03-23 22:48:00,70.0,68.2,29.62,North,360,0.0,0.0,94,0.00,,---,0.00,VWS V14.01,2013-03-24 02:48:00,
2013-03-23 22:53:00,70.0,68.8,29.62,North,360,0.0,2.0,96,0.00,,---,0.00,VWS V14.01,2013-03-24 02:53:00,
2013-03-23 22:58:00,70.0,68.8,29.62,North,360,0.0,2.0,96,0.00,,---,0.00,VWS V14.01,2013-03-24 02:58:00,
2013-03-23 23:03:00,70.0,68.8,29.62,North,360,0.0,1.0,96,0.00,,---,0.00,VWS V14.01,2013-03-24 03:03:00,
2013-03-23 23:08:00,70.0,68.8,29.63,North,360,2.0,3.0,96,0.00,,---,0.00,VWS V14.01,2013-03-24 03:08:00,
2013-03-23 23:13:00,70.0,69.1,29.63,NNE,22,0.0,0.0,97,0.00,,---,0.00,VWS V14.01,2013-03-24 03:13:00,
2013-03-23 23:18:00,70.0,68.8,29.62,NNE,22,0.0,0.0,96,0.00,,---,0.00,VWS V14.01,2013-03-24 03:18:00,
2013-03-23 23:23:00,69.0,67.8,29.62,NNE,22,0.0,0.0,96,0.00,,---,0.00,VWS V14.01,2013-03-24 03:23:00,
2013-03-23 23:28:00,69.0,67.5,29.62,NNE,22,0.0,0.0,95,0.00,,---,0.00,VWS V14.01,2013-03-24 03:28:00,
2013-03-23 23:33:00,69.0,67.8,29.62,NNE,22,0.0,0.0,96,0.00,,---,0.00,VWS V14.01,2013-03-24 03:33:00,
2013-03-23 23:38:00,69.0,67.5,29.62,NNE,22,0.0,0.0,95,0.00,,---,0.00,VWS V14.01,2013-03-24 03:38:00,
2013-03-23 23:43:00,69.0,67.8,29.62,NNE,22,0.0,0.0,96,0.00,,---,0.00,VWS V14.01,2013-03-24 03:43:00,
2013-03-23 23:48:00,69.0,67.8,29.62,NNE,22,0.0,0.0,96,0.00,,---,0.00,VWS V14.01,2013-03-24 03:48:00,
2013-03-23 23:53:00,68.0,67.4,29.62,NNE,22,0.0,0.0,98,0.00,,---,0.00,VWS V14.01,2013-03-24 03:53:00,
2013-03-23 23:58:00,69.0,68.7,29.61,NNE,22,0.0,0.0,99,0.00,,---,0.00,VWS V14.01,2013-03-24 03:58:00,